15 daagse weersverwachting Molde (NO)

  • Overzicht
  • Per uur
  • 15 dagen
  • Extra
  • Vergelijk
  • Kaarten
  • Dagkaart
  • Meer »
  • Info
  • Statistieken
  • Directe link
    Temp 6h Neerslag Wind  
 06:23     20:43    Daglengte: 14:20 Vandaag
14:00
 
10
20:00
7.5 mm
7
 06:20     20:46    Daglengte: 14:26 Morgen
02:00
4.2 mm
6
08:00
1.2 mm
4
14:00
1.2 mm
4
20:00
 
2
 06:17     20:49    Daglengte: 14:32 Zaterdag 11 Apr
02:00
4.5 mm
2
08:00
 
3
14:00
 
2
20:00
3.9 mm
2
 06:13     20:52    Daglengte: 14:39 Zondag 12 Apr
02:00
12.4 mm
3
08:00
24.3 mm
7
Locatie info
Region: MÝre og Romsdal
Latitude: 62.7375°N
Longitude: 7.1591°E
3 masl
Temp/Neerslag /Baro Onweer/DauwpuntSneeuw
    Temp Baro 1h Neerslag Dauwpunt Wind UV BewolkingSneeuw  
 06:23     20:43    Daglengte: 14:20 Vandaag
14:00
Voelt als: -1.2°
1023.4 hPa
49%
2.0°
10
Windvlaag: 12.3 km/h
85%2 cm
15:00
Voelt als: -0.8°
1023.7 hPa 1.1 mm
82%
2.3°
8
Windvlaag: 11.1 km/h
86%2 cm
16:00
Voelt als: -0.5°
1024.2 hPa 1.4 mm
82%
1.0°
9
Windvlaag: 9.5 km/h
85%2 cm
17:00
Voelt als: -0.3°
1024.6 hPa 1.4 mm
82%
0.6°
8
Windvlaag: 9.3 km/h
82%2 cm
18:00
Voelt als: -0.6°
1024.8 hPa 1.2 mm
82%
0.9°
8
Windvlaag: 8.7 km/h
83%2 cm
19:00
Voelt als: -0.8°
1025.1 hPa 1.3 mm
82%
0.4°
8
Windvlaag: 8.2 km/h
85%2 cm
20:00
Voelt als: -0.9°
1025.4 hPa 1.1 mm
82%
0.8°
7
Windvlaag: 8 km/h
78%2 cm
21:00
Voelt als: -1.0°
1025.8 hPa 1.0 mm
82%
0.7°
7
Windvlaag: 7.8 km/h
83%2 cm
22:00
Voelt als: -1.1°
1026.2 hPa 1.0 mm
82%
0.9°
6
Windvlaag: 7.7 km/h
88%2 cm
23:00
Voelt als: -1.3°
1026.5 hPa
82%
0.9°
6
Windvlaag: 7.3 km/h
84%2 cm
 06:20     20:46    Daglengte: 14:26 Morgen
00:00
Voelt als: -1.4°
1026.4 hPa 1.1 mm
82%
0.1°
6
Windvlaag: 6.2 km/h
87%2 cm
01:00
Voelt als: -2.6°
1026.7 hPa 1.1 mm
80%
0.0°
6
Windvlaag: 6.8 km/h
88%2 cm
02:00
Voelt als: -2.4°
1026.8 hPa
78%
0.4°
6
Windvlaag: 6.7 km/h
88%2 cm
03:00
Voelt als: -1.6°
1026.7 hPa
76%
-0.4°
5
Windvlaag: 5.9 km/h
84%2 cm
04:00
Voelt als: -1.5°
1026.6 hPa
75%
-0.7°
5
Windvlaag: 4.7 km/h
84%2 cm
05:00
Voelt als: -1.3°
1026.4 hPa
79%
-0.7°
4
Windvlaag: 4.7 km/h
76%2 cm
06:00
Voelt als: -1.3°
1026.3 hPa
80%
-0.9°
4
Windvlaag: 4.2 km/h
72%3 cm
07:00
Voelt als: -1.3°
1026.1 hPa
80%
-0.9°
4
Windvlaag: 3.7 km/h
77%3 cm
08:00
Voelt als: -1.4°
1026.1 hPa 1.2 mm
73%
-1.1°
4
Windvlaag: 4.1 km/h
76%3 cm
09:00
Voelt als: -1.4°
1026.0 hPa 1.2 mm
71%
-1.8°
5
Windvlaag: 5 km/h
63%3 cm
10:00
Voelt als: -1.3°
1025.9 hPa
71%
-1.2°
5
Windvlaag: 5.8 km/h
63%2 cm
11:00
Voelt als: -0.9°
1025.8 hPa
64%
-1.2°
5
Windvlaag: 6.4 km/h
73%2 cm
12:00
Voelt als: -0.5°
1025.7 hPa
30%
-0.8°
5
Windvlaag: 6.7 km/h
73%3 cm
13:00
Voelt als: -0.6°
1025.6 hPa
82%
-0.9°
5
Windvlaag: 7.1 km/h
75%2 cm
14:00
Voelt als: 0.2°
1025.2 hPa
77%
-0.7°
4
Windvlaag: 6.7 km/h
81%2 cm
15:00
Voelt als: 0.7°
1025.0 hPa
31%
0.3°
5
Windvlaag: 6 km/h
77%2 cm
16:00
Voelt als: 0.7°
1024.6 hPa
25%
1.3°
5
Windvlaag: 5.4 km/h
79%2 cm
17:00
Voelt als: 1.0°
1024.4 hPa
57%
1.6°
4
Windvlaag: 4.1 km/h
85%2 cm
18:00
Voelt als: 1.2°
1024.4 hPa
56%
1.7°
4
Windvlaag: 2.9 km/h
81%2 cm
19:00
Voelt als: 1.5°
1024.5 hPa
59%
1.5°
3
Windvlaag: 2.8 km/h
81%2 cm
20:00
Voelt als: 2.0°
1024.6 hPa
75%
1.0°
2
Windvlaag: 2.5 km/h
79%2 cm
21:00
Voelt als: 1.8°
1024.7 hPa
78%
1.1°
2
Windvlaag: 3.4 km/h
70%2 cm
22:00
Voelt als: 1.8°
1024.8 hPa
82%
0.6°
2
Windvlaag: 3.7 km/h
59%2 cm
23:00
Voelt als: 1.4°
1024.7 hPa
82%
0.2°
2
Windvlaag: 3.5 km/h
38%2 cm
 06:17     20:49    Daglengte: 14:32 Zaterdag 11 Apr
00:00
Voelt als: 1.3°
1024.6 hPa 1.5 mm
82%
-0.1°
2
Windvlaag: 3.5 km/h
30%2 cm
01:00
Voelt als: 1.2°
1024.5 hPa 1.6 mm
81%
-0.6°
2
Windvlaag: 3.3 km/h
22%2 cm
02:00
Voelt als: 0.6°
1024.6 hPa 1.4 mm
80%
-0.9°
2
Windvlaag: 3.1 km/h
19%2 cm
03:00
Voelt als: 0.2°
1024.3 hPa
76%
-1.4°
2
Windvlaag: 3.1 km/h
36%2 cm
04:00
Voelt als: 0.2°
1024.0 hPa
76%
-2.1°
2
Windvlaag: 2.7 km/h
69%2 cm
05:00
Voelt als: 0.1°
1023.7 hPa
70%
-2.0°
2
Windvlaag: 2.4 km/h
81%2 cm
06:00
Voelt als: -0.1°
1023.4 hPa
68%
-1.9°
3
Windvlaag: 2.4 km/h
87%2 cm
07:00
Voelt als: -0.0°
1023.0 hPa
69%
-2.1°
3
Windvlaag: 2.8 km/h
81%2 cm
08:00
Voelt als: 0.7°
1022.4 hPa
63%
-2.6°
3
Windvlaag: 2.5 km/h
84%2 cm
09:00
Voelt als: 1.6°
1021.8 hPa
14%
-1.6°
2
Windvlaag: 2.5 km/h
76%2 cm
10:00
Voelt als: 2.8°
1021.2 hPa
14%
-1.1°
2
Windvlaag: 2.4 km/h
73%2 cm
11:00
Voelt als: 3.8°
1019.3 hPa
21%
-1.4°
2
Windvlaag: 2.5 km/h
94%2 cm
12:00
Voelt als: 4.7°
1018.5 hPa
21%
-0.8°
2
Windvlaag: 2.4 km/h
96%2 cm
13:00
Voelt als: 5.0°
1017.7 hPa
21%
0.3°
2
Windvlaag: 2.3 km/h
99%2 cm
14:00
Voelt als: 5.6°
1016.9 hPa
21%
2.3°
2
Windvlaag: 2.4 km/h
99%2 cm
15:00
Voelt als: 5.6°
1015.9 hPa
21%
3.1°
2
Windvlaag: 2.7 km/h
100%1 cm
16:00
Voelt als: 5.2°
1014.7 hPa
78%
3.3°
2
Windvlaag: 2.6 km/h
100%1 cm
17:00
Voelt als: 5.2°
1013.5 hPa
100%
3.5°
2
Windvlaag: 2.2 km/h
100%1 cm
18:00
Voelt als: 4.8°
1012.1 hPa 1.1 mm
100%
3.9°
2
Windvlaag: 2.5 km/h
100%1 cm
19:00
Voelt als: 4.8°
1010.9 hPa 1.3 mm
100%
3.8°
2
Windvlaag: 2.8 km/h
99%1 cm
20:00
Voelt als: 4.3°
1009.8 hPa 1.5 mm
100%
3.7°
2
Windvlaag: 2.6 km/h
99%1 cm
21:00
Voelt als: 3.7°
1008.9 hPa 1.7 mm
100%
3.7°
2
Windvlaag: 1.3 km/h
98%1 cm
22:00
Voelt als: 3.8°
1007.9 hPa 2.6 mm
100%
3.8°
2
Windvlaag: 1.3 km/h
99%1 cm
23:00
Voelt als: 4.0°
1007.0 hPa 1.7 mm
100%
4.0°
2
Windvlaag: 1.5 km/h
100%1 cm
 06:13     20:52    Daglengte: 14:39 Zondag 12 Apr
00:00
Voelt als: 4.0°
1006.2 hPa 2.0 mm
100%
4.1°
2
Windvlaag: 2.6 km/h
100%1 cm
01:00
Voelt als: 3.8°
1005.4 hPa 2.1 mm
100%
4.2°
3
Windvlaag: 2.7 km/h
100%1 cm
02:00
Voelt als: 3.9°
1004.6 hPa 2.3 mm
100%
4.4°
3
Windvlaag: 0.6 km/h
100%1 cm
03:00
Voelt als: 3.8°
1004.1 hPa 2.7 mm
100%
4.7°
3
Windvlaag: 1.8 km/h
100%1 cm
04:00
Voelt als: 3.4°
1003.7 hPa 2.9 mm
100%
5.0°
5
Windvlaag: 5.3 km/h
100%1 cm
05:00
Voelt als: 3.1°
1003.6 hPa 5.4 mm
100%
5.0°
6
Windvlaag: 5 km/h
100%1 cm
06:00
Voelt als: 3.1°
1003.6 hPa 3.3 mm
100%
5.1°
6
Windvlaag: 4.3 km/h
100%1 cm
07:00
Voelt als: 3.1°
1003.5 hPa 6.1 mm
100%
5.3°
6
Windvlaag: 3.3 km/h
100%1 cm
08:00
Voelt als: 2.7°
1003.6 hPa 3.9 mm
100%
5.1°
7
Windvlaag: 1.9 km/h
100%1 cm
09:00
Voelt als: 2.4°
1003.0 hPa 6.1 mm
100%
4.7°
6
Windvlaag: 10.7 km/h
100%1 cm
10:00
Voelt als: 1.7°
1003.6 hPa 6.4 mm
100%
4.1°
6
Windvlaag: 9.1 km/h
100%1 cm
11:00
Voelt als: 1.2°
1004.2 hPa 6.5 mm
100%
3.7°
6
Windvlaag: 10.9 km/h
100%1 cm
12:00
Voelt als: 1.3°
1004.9 hPa 6.4 mm
100%
3.8°
6
Windvlaag: 9.1 km/h
100%1 cm
13:00
Voelt als: 1.0°
1005.6 hPa
88%
3.9°
6
Windvlaag: 9.7 km/h
99%1 cm
Temp/Neerslag /Baro Onweer/DauwpuntSneeuw
    Temp Baro Neerslag Dauwpunt Wind BewolkingSneeuw  
 06:23     20:43    Daglengte: 14:20 Vandaag
14:00
Voelt als: -1.2°
1023.4 hPa   2.0°
10
85%2 cm
17:00
Voelt als: -0.3°
1024.6 hPa 3.9 mm 0.6°
8
82%2 cm
20:00
Voelt als: -0.9°
1025.4 hPa 3.6 mm 0.8°
7
78%2 cm
23:00
Voelt als: -1.3°
1026.5 hPa 2.0 mm 0.9°
6
84%2 cm
 06:20     20:46    Daglengte: 14:26 Morgen
02:00
Voelt als: -2.4°
1026.8 hPa 2.1 mm 0.4°
6
88%2 cm
05:00
Voelt als: -1.3°
1026.4 hPa   -0.7°
4
76%2 cm
08:00
Voelt als: -1.4°
1026.1 hPa 1.2 mm -1.1°
4
76%3 cm
11:00
Voelt als: -0.9°
1025.8 hPa 1.2 mm -1.2°
5
73%2 cm
14:00
Voelt als: 0.2°
1025.2 hPa   -0.7°
4
81%2 cm
17:00
Voelt als: 1.0°
1024.4 hPa   1.6°
4
85%2 cm
20:00
Voelt als: 2.0°
1024.6 hPa   1.0°
2
79%2 cm
23:00
Voelt als: 1.4°
1024.7 hPa   0.2°
2
38%2 cm
 06:17     20:49    Daglengte: 14:32 Zaterdag 11 Apr
02:00
Voelt als: 0.6°
1024.6 hPa 4.5 mm -0.9°
2
19%2 cm
05:00
Voelt als: 0.1°
1023.7 hPa   -2.0°
2
81%2 cm
08:00
Voelt als: 0.7°
1022.4 hPa   -2.6°
3
84%2 cm
11:00
Voelt als: 3.8°
1019.3 hPa   -1.4°
2
94%2 cm
14:00
Voelt als: 5.6°
1016.9 hPa   2.3°
2
99%2 cm
17:00
Voelt als: 5.2°
1013.5 hPa   3.5°
2
100%1 cm
20:00
Voelt als: 4.3°
1009.8 hPa 3.9 mm 3.7°
2
99%1 cm
23:00
Voelt als: 4.0°
1007.0 hPa 6.0 mm 4.0°
2
100%1 cm
 06:13     20:52    Daglengte: 14:39 Zondag 12 Apr
02:00
Voelt als: 3.9°
1004.6 hPa 6.4 mm 4.4°
3
100%1 cm
05:00
Voelt als: 3.1°
1003.6 hPa 11.0 mm 5.0°
6
100%1 cm
08:00
Voelt als: 2.7°
1003.6 hPa 13.3 mm 5.1°
7
100%1 cm
11:00
Voelt als: 1.2°
1004.2 hPa 19.1 mm 3.7°
6
100%1 cm
14:00
Voelt als: 1.0°
1006.3 hPa 19.5 mm 3.8°
7
93%1 cm
17:00
Voelt als: 1.2°
1006.5 hPa 31.8 mm 3.9°
7
86%
20:00
Voelt als: 0.6°
1008.5 hPa 32.0 mm 3.4°
8
84%
23:00
Voelt als: 0.2°
1012.1 hPa 32.5 mm 1.9°
7
78%
 06:10     20:55    Daglengte: 14:45 Maandag 13 Apr
02:00
Voelt als: -0.1°
1015.7 hPa 32.7 mm 0.5°
7
72%
05:00
Voelt als: -0.1°
1019.2 hPa 32.8 mm 0.5°
6
68%
08:00
Voelt als: -0.3°
1022.7 hPa 33.0 mm 0.6°
6
64%
11:00
Voelt als: 0.5°
1023.9 hPa 33.3 mm -0.6°
6
77%
14:00
Voelt als: 1.3°
1025.1 hPa 33.3 mm -1.9°
5
90%
17:00
Voelt als: 1.4°
1024.6 hPa 33.3 mm -1.1°
4
91%
20:00
Voelt als: 1.6°
1024.0 hPa 33.3 mm -0.3°
3
91%
23:00
Voelt als: 0.9°
1023.2 hPa 33.3 mm 0.4°
4
91%
 06:07     20:57    Daglengte: 14:50 Dinsdag 14 Apr
02:00
Voelt als: 0.3°
1022.3 hPa 33.3 mm 1.0°
5
92%
05:00
Voelt als: 0.1°
1019.9 hPa 33.5 mm 1.3°
7
92%
08:00
Voelt als: 0.2°
1017.6 hPa 33.6 mm 1.8°
8
92%
11:00
Voelt als: 1.6°
1016.3 hPa 33.6 mm 3.0°
9
92%
14:00
Voelt als: 2.9°
1014.9 hPa 33.6 mm 4.2°
10
92%
17:00
Voelt als: 3.0°
1014.9 hPa 33.8 mm 4.9°
9
92%
20:00
Voelt als: 3.3°
1014.9 hPa 33.8 mm 5.4°
9
92%
23:00
Voelt als: 3.5°
1014.6 hPa 33.8 mm 5.6°
8
92%
 06:03     21:00    Daglengte: 14:57 Woensdag 15 Apr
02:00
Voelt als: 3.8°
1014.1 hPa 33.8 mm 5.6°
8
92%
05:00
Voelt als: 3.5°
1015.1 hPa 33.8 mm 4.8°
7
90%
08:00
Voelt als: 3.4°
1016.1 hPa 33.8 mm 4.0°
6
89%
11:00
Voelt als: 4.7°
1016.2 hPa 33.8 mm 4.4°
6
88%
14:00
Voelt als: 5.9°
1016.3 hPa 33.8 mm 4.7°
7
88%
17:00
Voelt als: 5.9°
1015.9 hPa 33.8 mm 5.3°
6
87%
20:00
Voelt als: 5.8°
1015.5 hPa 33.8 mm 5.9°
4
86%
23:00
Voelt als: 4.8°
1014.9 hPa 33.8 mm 5.0°
4
85%
 06:00     21:03    Daglengte: 15:03 Donderdag 16 Apr
02:00
Voelt als: 3.8°
1014.3 hPa 33.8 mm 3.9°
3
84%
05:00
Voelt als: 3.6°
1013.0 hPa 33.8 mm 3.6°
3
83%
08:00
Voelt als: 3.6°
1011.8 hPa 33.8 mm 3.5°
4
82%
11:00
Voelt als: 4.2°
1010.0 hPa   4.2°
5
87%
14:00
Voelt als: 5.2°
1008.2 hPa 67.6 mm 5.0°
7
92%
20:00
Voelt als: 3.1°
1009.8 hPa 67.7 mm 5.5°
6
82%
 05:57     21:06    Daglengte: 15:09 Vrijdag 17 Apr
02:00
Voelt als: 3.2°
1015.8 hPa 71.8 mm 3.9°
2
55%
08:00
Voelt als: 3.3°
1020.0 hPa 77.1 mm 3.8°
3
68%
14:00
Voelt als: 6.4°
1021.5 hPa 78.1 mm 1.7°
3
79%
20:00
Voelt als: 6.2°
1020.4 hPa 78.1 mm 3.1°
2
71%
 05:54     21:09    Daglengte: 15:15 Zaterdag 18 Apr
02:00
Voelt als: 3.0°
1023.3 hPa 78.1 mm 2.3°
2
71%
08:00
Voelt als: 3.6°
1022.7 hPa 78.1 mm 2.0°
3
74%
14:00
11°
1021.7 hPa 78.1 mm 2.8°
3
81%
20:00
10°
1022.2 hPa 78.1 mm 5.7°
3
85%
 05:50     21:12    Daglengte: 15:22 Zondag 19 Apr
02:00
1029.1 hPa 78.1 mm 0.5°
1
1%
08:00
Voelt als: 3.1°
1015.3 hPa 0.4 mm 1.5°
4
45%
14:00
Voelt als: 7.4°
1015.1 hPa 1.4 mm 2.8°
4
52%
20:00
Voelt als: 6.4°
1016.1 hPa 1.3 mm 3.3°
3
51%
 05:47     21:15    Daglengte: 15:28 Maandag 20 Apr
02:00
Voelt als: 4.1°
1017.0 hPa 1.2 mm 2.7°
2
55%
08:00
Voelt als: 4.5°
1016.2 hPa 0.8 mm 1.9°
2
56%
14:00
10°
Voelt als: 8.9°
1014.8 hPa 1.0 mm 3.1°
2
50%
20:00
Voelt als: 7.9°
1013.4 hPa 1.0 mm 3.2°
2
52%
 05:44     21:17    Daglengte: 15:33 Dinsdag 21 Apr
02:00
Voelt als: 4.1°
1011.7 hPa 1.3 mm 2.7°
2
61%
08:00
Voelt als: 3.8°
1009.7 hPa 1.3 mm 2.1°
3
59%
14:00
Voelt als: 7.4°
1009.6 hPa 1.9 mm 3.0°
3
61%
20:00
Voelt als: 6.4°
1009.8 hPa 1.6 mm 2.9°
3
59%
 05:41     21:20    Daglengte: 15:39 Woensdag 22 Apr
02:00
Voelt als: 2.9°
1010.8 hPa 0.9 mm 2.0°
3
58%
08:00
Voelt als: 3.6°
1011.3 hPa 1.2 mm 2.0°
2
64%
14:00
Voelt als: 7.2°
1012.8 hPa 1.6 mm 2.8°
2
61%
20:00
Voelt als: 5.5°
1014.0 hPa 1.7 mm 2.0°
2
61%
 05:37     21:23    Daglengte: 15:46 Donderdag 23 Apr
02:00
Voelt als: 2.9°
1015.5 hPa 0.8 mm 0.5°
1
53%
08:00
Voelt als: 2.8°
1015.8 hPa 0.6 mm 0.4°
2
53%
14:00
Voelt als: 6.0°
1016.4 hPa 0.6 mm 1.5°
3
52%
20:00
Voelt als: 5.9°
1017.3 hPa 1.1 mm 2.2°
1
58%
 05:34     21:26    Daglengte: 15:52 Vrijdag 24 Apr
02:00
Voelt als: 3.8°
1018.1 hPa 0.7 mm 1.4°
1
49%
08:00
Voelt als: 4.5°
1017.6 hPa 0.4 mm 1.0°
1
46%
  CAPE Lifted Index Hail Supercell Tornado SRH 3km CL BTM PRES CL TOP PRES Swiss DWD icon SMHI TS
 06:23     20:43    Daglengte: 14:20 Vandaag
14:00 94 J/kg 10.2 K 0 % 0 % 0 % 0 m²/s² 0 0 11.82 85
15:00 101 J/kg 10.0 K 0 % 0 % 0 % 0 m²/s² 0 0 12.28 85
16:00 94 J/kg 10.3 K 0 % 0 % 0 % 0 m²/s² 0 0 12.94 85
17:00 84 J/kg 10.9 K 0 % 0 % 0 % 0 m²/s² 0 0 13.48 85
18:00 85 J/kg 11.3 K 0 % 0 % 0 % 0 m²/s² 0 0 13.4 85
19:00 71 J/kg 12.1 K 0 % 0 % 0 % 0 m²/s² 0 0 14.29 85
20:00 54 J/kg 12.6 K 0 % 0 % 0 % 0 m²/s² 0 0 15.12 85
21:00 54 J/kg 12.7 K 0 % 0 % 0 % 0 m²/s² 0 0 15.46 85
22:00 53 J/kg 13.0 K 0 % 0 % 0 % 0 m²/s² 0 0 15.91 85
23:00 45 J/kg 13.5 K 0 % 0 % 0 % 0 m²/s² 0 0 16.65 85
 06:20     20:46    Daglengte: 14:26 Morgen
00:00 32 J/kg 13.9 K 0 % 0 % 0 % 0 m²/s² 0 0 16.87 85
01:00 34 J/kg 13.9 K 0 % 0 % 0 % 0 m²/s² 0 0 16.81 85
02:00 47 J/kg 13.1 K 0 % 0 % 0 % 0 m²/s² 0 0 16.01 85
03:00 36 J/kg 13.0 K 0 % 0 % 0 % 0 m²/s² 0 0 15.58 3
04:00 39 J/kg 12.4 K 0 % 0 % 0 % 0 m²/s² 0 0 14.14 85
05:00 38 J/kg 12.1 K 0 % 0 % 0 % 0 m²/s² 0 0 13.69 85
06:00 39 J/kg 12.1 K 0 % 0 % 0 % 0 m²/s² 0 0 13.36 85
07:00 41 J/kg 11.8 K 0 % 0 % 0 % 0 m²/s² 0 0 12.58 3
08:00 41 J/kg 11.8 K 0 % 0 % 0 % 0 m²/s² 0 0 12.67 71
09:00 31 J/kg 12.0 K 0 % 0 % 0 % 0 m²/s² 0 0 12.78 71
10:00 29 J/kg 11.4 K 0 % 0 % 0 % 0 m²/s² 0 0 12.09 3
11:00 29 J/kg 11.0 K 0 % 0 % 0 % 0 m²/s² 0 0 12.14 3
12:00 29 J/kg 10.6 K 0 % 0 % 0 % 0 m²/s² 0 0 11.83 3
13:00 23 J/kg 10.4 K 0 % 0 % 0 % 0 m²/s² 0 0 11.66 3
14:00 14 J/kg 10.6 K 0 % 0 % 0 % 0 m²/s² 0 0 12.07 3
15:00 20 J/kg 10.3 K 0 % 0 % 0 % 0 m²/s² 0 0 11.98 3
16:00 15 J/kg 10.4 K 0 % 0 % 0 % 0 m²/s² 0 0 12.11 3
17:00 15 J/kg 10.5 K 0 % 0 % 0 % 0 m²/s² 0 0 12.27 3
18:00 14 J/kg 10.5 K 0 % 0 % 0 % 0 m²/s² 0 0 12.69 3
19:00 10 J/kg 10.7 K 0 % 0 % 0 % 0 m²/s² 0 0 13.31 3
20:00 5 J/kg 10.9 K 0 % 0 % 0 % 0 m²/s² 0 0 14.23 3
21:00 3 J/kg 10.9 K 0 % 0 % 0 % 0 m²/s² 0 0 16.24 61
22:00 0 J/kg 11.1 K 0 % 0 % 0 % 0 m²/s² 0 0 18.84 61
23:00 0 J/kg 11.3 K 0 % 0 % 0 % 0 m²/s² 0 0 19.76 61
 06:17     20:49    Daglengte: 14:32 Zaterdag 11 Apr
00:00 0 J/kg 11.8 K 0 % 0 % 0 % 0 m²/s² 0 0 20.68 61
01:00 0 J/kg 12.0 K 0 % 0 % 0 % 0 m²/s² 0 0 21.84 61
02:00 0 J/kg 12.6 K 0 % 0 % 0 % 0 m²/s² 0 0 22.44 61
03:00 0 J/kg 12.9 K 0 % 0 % 0 % 0 m²/s² 0 0 22.77 61
04:00 0 J/kg 13.0 K 0 % 0 % 0 % 0 m²/s² 0 0 22.42 61
05:00 0 J/kg 13.3 K 0 % 0 % 0 % 0 m²/s² 0 0 21.88 3
06:00 0 J/kg 13.8 K 0 % 0 % 0 % 0 m²/s² 0 0 22.05 61
07:00 0 J/kg 14.3 K 0 % 0 % 0 % 0 m²/s² 0 0 21.95 61
08:00 0 J/kg 13.9 K 0 % 0 % 0 % 0 m²/s² 0 0 20.14 3
09:00 0 J/kg 12.6 K 0 % 0 % 0 % 0 m²/s² 0 0 17.7 3
10:00 0 J/kg 10.9 K 0 % 0 % 0 % 0 m²/s² 0 0 13.06 3
11:00 0 J/kg 10.0 K 0 % 0 % 0 % 0 m²/s² 0 0 10.57 3
12:00 0 J/kg 9.1 K 0 % 0 % 0 % 0 m²/s² 0 0 9.46 3
13:00 0 J/kg 8.5 K 0 % 0 % 0 % 0 m²/s² 0 0 8.89 3
14:00 0 J/kg 8.0 K 0 % 0 % 0 % 0 m²/s² 0 0 8.39 3
15:00 0 J/kg 7.4 K 0 % 0 % 0 % 0 m²/s² 0 0 7.76 3
16:00 0 J/kg 6.9 K 0 % 0 % 0 % 0 m²/s² 0 0 7.32 3
17:00 0 J/kg 5.9 K 0 % 0 % 0 % 0 m²/s² 0 0 6.23 61
18:00 0 J/kg 5.0 K 0 % 0 % 0 % 0 m²/s² 0 0 5.27 61
19:00 0 J/kg 4.4 K 0 % 0 % 0 % 0 m²/s² 0 0 4.67 61
20:00 0 J/kg 4.1 K 0 % 0 % 0 % 0 m²/s² 0 0 4.43 61
21:00 0 J/kg 3.5 K 0 % 0 % 0 % 0 m²/s² 0 0 4.04 61
22:00 0 J/kg 2.5 K 0 % 0 % 0 % 0 m²/s² 0 0 2.92 61
23:00 0 J/kg 2.1 K 0 % 0 % 0 % 0 m²/s² 0 0 2.37 61
 06:13     20:52    Daglengte: 14:39 Zondag 12 Apr
00:00 0 J/kg 2.3 K 0 % 0 % 0 % 0 m²/s² 0 0 2.51 61
01:00 0 J/kg 2.2 K 0 % 0 % 0 % 0 m²/s² 0 0 2.47 61
02:00 0 J/kg 3.1 K 0 % 0 % 0 % 0 m²/s² 0 0 3.43 61
03:00 7 J/kg 4.3 K 0 % 0 % 0 % 0 m²/s² 0 0 7.3 61
04:00 13 J/kg 8.6 K 0 % 0 % 0 % 0 m²/s² 0 0 17.42 61
05:00 5 J/kg 9.3 K 0 % 0 % 0 % 0 m²/s² 0 0 13.74 63
06:00 1 J/kg 8.4 K 0 % 0 % 0 % 0 m²/s² 0 0 9.27 63
07:00 2 J/kg 8.3 K 0 % 0 % 0 % 0 m²/s² 0 0 8.69 63
08:00 2 J/kg 8.0 K 0 % 0 % 0 % 0 m²/s² 0 0 8.99 73
09:00 3 J/kg 7.4 K 0 % 0 % 0 % 0 m²/s² 0 0 7.88 73
10:00 7 J/kg 8.0 K 0 % 0 % 0 % 0 m²/s² 0 0 8.45 61
11:00 3 J/kg 8.5 K 0 % 0 % 0 % 0 m²/s² 0 0 8.95 61
12:00 12 J/kg 9.5 K 0 % 0 % 0 % 0 m²/s² 0 0 9.89 61
13:00 15 J/kg 10.4 K 0 % 0 % 0 % 0 m²/s² 0 0 10.82 3
Temp Baro Wind Neerslag
  EWN Forecast EWN WRFDA DWD ICON FMI HIRLAM MET Norway GFS
 06:23     20:43    Daglengte: 14:20 Vandaag
14:00 4.3° 1023.4 hPa 9.7 m/s 0.0 mm 3.4° 1021.5 hPa 8.9 m/s 2.5 mm 2.6° 1023.9 hPa 8.9 m/s -0.7 mm 4.4° 1023.5 hPa 8.3 m/s 0.0 mm 5.1° 1023.2 hPa 9.9 m/s 2.5° 1023.1 hPa 9.2 m/s
17:00 4.7° 1024.6 hPa 8.1 m/s 3.9 mm 4.5° 1022.5 hPa 8.8 m/s 9.6 mm 2.7° 1025.6 hPa 8.2 m/s 1.3 mm 4.4° 1024.6 hPa 7.1 m/s 0.0 mm 5.8° 1024.5 hPa 7.9 m/s 2.2° 1024.4 hPa 6.9 m/s
20:00 4.0° 1025.4 hPa 7.2 m/s 3.6 mm 3.1° 1023.4 hPa 7.5 m/s 10.3 mm 2.0° 1025.8 hPa 6.0 m/s 2.0 mm 3.6° 1025.4 hPa 6.8 m/s 0.0 mm 4.7° 1025.4 hPa 7.9 m/s 2.1° 1025.9 hPa 4.6 m/s
23:00 3.1° 1026.5 hPa 5.6 m/s 2.0 mm 2.4° 1024.0 hPa 5.6 m/s 11.1 mm 1.6° 1027.2 hPa 4.5 m/s 1.9 mm 3.2° 1026.6 hPa 5.8 m/s 0.0 mm 3.3° 1026.4 hPa 5.4 m/s 2.4° 1026.6 hPa 4.5 m/s
 06:20     20:46    Daglengte: 14:26 Morgen
02:00 2.3° 1026.8 hPa 5.6 m/s 2.1 mm 1.8° 1024.6 hPa 5.1 m/s 11.9 mm 1.3° 1027.4 hPa 4.8 m/s 1.6 mm 2.8° 1026.4 hPa 5.2 m/s 0.0 mm 2.2° 1027.0 hPa 5.7 m/s 2.1° 1027.5 hPa 4.3 m/s
05:00 2.5° 1026.4 hPa 4.2 m/s 0.0 mm 1.9° 1025.0 hPa 4.3 m/s 13.0 mm 1.1° 1026.6 hPa 3.7 m/s 1.2 mm 2.6° 1026.1 hPa 3.8 m/s 0.0 mm 2.6° 1026.6 hPa 3.9 m/s 1.6° 1027.7 hPa 4.0 m/s
08:00 2.3° 1026.1 hPa 4.0 m/s 1.2 mm 2.4° 1024.5 hPa 4.6 m/s 13.6 mm 1.2° 1026.2 hPa 2.6 m/s 0.5 mm 2.5° 1025.6 hPa 4.1 m/s 0.0 mm 2.7° 1026.5 hPa 3.8 m/s 0.9° 1027.5 hPa 4.2 m/s
11:00 3.2° 1025.8 hPa 5.2 m/s 1.2 mm 3.0° 1024.3 hPa 5.3 m/s 14.0 mm 2.6° 1025.5 hPa 4.2 m/s 0.2 mm 3.5° 1025.2 hPa 5.1 m/s 0.0 mm 3.8° 1026.5 hPa 5.9 m/s 2.2° 1027.2 hPa 2.9 m/s
14:00 3.9° 1025.2 hPa 4.4 m/s 0.0 mm 5.3° 1024.0 hPa 6.3 m/s 16.0 mm 3.7° 1024.4 hPa 4.2 m/s 0.1 mm 3.3° 1024.1 hPa 2.2 m/s 0.0 mm 4.9° 1026.5 hPa 5.7 m/s 3.4° 1027.1 hPa 2.0 m/s
17:00 4.3° 1024.4 hPa 4.1 m/s 0.0 mm 6.2° 1022.1 hPa 7.0 m/s 16.5 mm 4.9° 1023.4 hPa 5.4 m/s 0.0 mm 5.8° 1023.3 hPa 8.5 m/s 0.0 mm 3.9° 1026.0 hPa 1.2 m/s 3.2° 1026.1 hPa 0.2 m/s
20:00 4.1° 1024.6 hPa 2.4 m/s 0.0 mm 5.1° 1021.6 hPa 4.3 m/s 17.3 mm 4.4° 1023.4 hPa 2.4 m/s 0.1 mm 4.1° 1024.8 hPa 2.3 m/s 0.0 mm 4.2° 1025.1 hPa 1.6 m/s 2.6° 1025.4 hPa 1.3 m/s
23:00 3.5° 1024.7 hPa 2.2 m/s 0.0 mm 3.6° 1021.5 hPa 5.8 m/s 18.5 mm 2.2° 1024.2 hPa 1.0 m/s 1.8 mm 3.9° 1025.5 hPa 1.6 m/s 0.0 mm 3.6° 1024.8 hPa 3.2 m/s 1.8° 1025.4 hPa 2.3 m/s
 06:17     20:49    Daglengte: 14:32 Zaterdag 11 Apr
02:00 2.8° 1024.6 hPa 2.2 m/s 4.5 mm 1.1° 1021.6 hPa 3.2 m/s 18.8 mm 1.9° 1024.2 hPa 1.8 m/s 1.1 mm 3.0° 1026.1 hPa 1.3 m/s 0.0 mm 2.9° 1024.5 hPa 2.2 m/s 1.4° 1025.1 hPa 2.3 m/s
05:00 2.6° 1023.7 hPa 2.5 m/s 0.0 mm 2.2° 1020.0 hPa 2.1 m/s 18.8 mm 2.1° 1023.7 hPa 2.0 m/s 0.5 mm 2.5° 1025.9 hPa 1.5 m/s 0.0 mm 2.4° 1023.5 hPa 2.9 m/s 1.6° 1023.8 hPa 2.8 m/s
08:00 3.2° 1022.4 hPa 2.5 m/s 0.0 mm 2.9° 1017.5 hPa 2.1 m/s 18.8 mm 2.6° 1022.7 hPa 1.7 m/s 0.4 mm 3.6° 1024.7 hPa 1.8 m/s 0.0 mm 3.0° 1021.3 hPa 3.1 m/s 2.5° 1022.2 hPa 2.8 m/s
11:00 5.5° 1019.3 hPa 2.2 m/s 0.0 mm 6.6° 1014.5 hPa 0.8 m/s 18.8 mm 5.5° 1021.2 hPa 2.1 m/s 0.0 mm 4.9° 1019.2 hPa 2.3 m/s 4.7° 1019.6 hPa 2.0 m/s
14:00 6.5° 1016.9 hPa 1.5 m/s 0.0 mm 8.1° 1012.2 hPa 1.1 m/s 18.9 mm 7.8° 1018.4 hPa 1.4 m/s 0.0 mm 4.9° 1016.9 hPa 2.3 m/s 6.2° 1017.4 hPa 1.7 m/s
17:00 6.3° 1013.5 hPa 1.7 m/s 0.0 mm 8.8° 1008.7 hPa 2.5 m/s 18.9 mm 7.1° 1016.0 hPa 1.1 m/s 0.1 mm 5.0° 1013.3 hPa 1.9 m/s 5.5° 1014.3 hPa 1.9 m/s
20:00 5.5° 1009.8 hPa 1.6 m/s 3.9 mm 7.0° 1005.8 hPa 2.2 m/s 19.1 mm 5.3° 1013.6 hPa 1.4 m/s 1.3 mm 5.0° 1009.4 hPa 1.7 m/s 5.1° 1011.0 hPa 3.2 m/s
23:00 5.6° 1007.0 hPa 2.1 m/s 6.0 mm 6.9° 1003.8 hPa 5.4 m/s 19.6 mm 4.0° 1010.5 hPa 1.7 m/s 2.2 mm 5.6° 1006.9 hPa 2.0 m/s 5.6° 1008.6 hPa 3.6 m/s
 06:13     20:52    Daglengte: 14:39 Zondag 12 Apr
02:00 6.0° 1004.6 hPa 2.6 m/s 6.4 mm 7.1° 1003.0 hPa 8.1 m/s 23.9 mm 3.6° 1007.8 hPa 1.9 m/s 2.8 mm 6.2° 1004.4 hPa 2.2 m/s 5.9° 1006.8 hPa 3.8 m/s
05:00 6.6° 1003.6 hPa 5.6 m/s 11.0 mm 5.8° 1003.3 hPa 7.3 m/s 30.7 mm 2.4° 1006.3 hPa 2.2 m/s 5.9 mm 7.2° 1002.5 hPa 4.7 m/s 6.2° 1005.1 hPa 5.7 m/s
08:00 6.7° 1003.6 hPa 6.9 m/s 13.3 mm 6.0° 1003.9 hPa 7.9 m/s 35.8 mm 0.5° 1006.7 hPa 0.9 m/s 8.4 mm 8.2° 1000.6 hPa 7.1 m/s 5.4° 1005.9 hPa 6.3 m/s
11:00 5.2° 1004.2 hPa 5.8 m/s 19.1 mm 3.7° 1006.1 hPa 6.4 m/s 50.3 mm 1.4° 1009.0 hPa 1.0 m/s 3.5 mm 7.3° 1001.4 hPa 6.8 m/s 5.5° 1007.5 hPa 5.3 m/s
14:00 5.3° 1006.3 hPa 6.6 m/s 19.5 mm 4.3° 1009.6 hPa 6.7 m/s 58.0 mm 3.8° 1012.1 hPa 6.7 m/s 0.3 mm 6.4° 1002.2 hPa 6.6 m/s 4.1° 1010.6 hPa 3.4 m/s
17:00 5.6° 1006.5 hPa 7.2 m/s 31.8 mm 5.8° 1005.9 hPa 7.5 m/s 3.2° 1013.3 hPa 3.7 m/s 31.8 mm
20:00 5.2° 1008.5 hPa 7.7 m/s 32.0 mm 5.5° 1007.8 hPa 8.0 m/s 2.2° 1016.2 hPa 3.9 m/s 32.0 mm
23:00 4.9° 1012.1 hPa 7.3 m/s 32.5 mm 5.2° 1011.5 hPa 7.5 m/s 1.6° 1019.7 hPa 4.3 m/s 32.5 mm
 06:10     20:55    Daglengte: 14:45 Maandag 13 Apr
02:00 4.5° 1015.7 hPa 6.7 m/s 32.7 mm 4.8° 1015.1 hPa 7.1 m/s 0.9° 1022.5 hPa 2.2 m/s 32.7 mm
05:00 4.3° 1019.2 hPa 6.4 m/s 32.8 mm 4.7° 1018.8 hPa 6.9 m/s 0.8° 1024.5 hPa 1.0 m/s 32.8 mm
08:00 4.2° 1022.7 hPa 6.3 m/s 33.0 mm 4.5° 1022.4 hPa 6.7 m/s 0.6° 1026.1 hPa 1.9 m/s 33.0 mm
11:00 4.6° 1023.9 hPa 5.8 m/s 33.3 mm 4.8° 1023.7 hPa 6.1 m/s 2.0° 1026.9 hPa 2.5 m/s 33.3 mm
14:00 5.0° 1025.1 hPa 5.1 m/s 33.3 mm 5.2° 1024.9 hPa 5.4 m/s 2.8° 1027.4 hPa 1.4 m/s 33.3 mm
17:00 4.8° 1024.6 hPa 4.3 m/s 33.3 mm 5.0° 1024.3 hPa 4.5 m/s 2.2° 1027.2 hPa 1.6 m/s 33.3 mm
20:00 4.5° 1024.0 hPa 3.4 m/s 33.3 mm 4.8° 1023.8 hPa 3.6 m/s 1.6° 1026.3 hPa 1.5 m/s 33.3 mm
23:00 4.4° 1023.2 hPa 4.4 m/s 33.3 mm 4.7° 1022.9 hPa 4.5 m/s 1.4° 1026.0 hPa 2.7 m/s 33.3 mm
 06:07     20:57    Daglengte: 14:50 Dinsdag 14 Apr
02:00 4.3° 1022.3 hPa 5.3 m/s 33.3 mm 4.5° 1022.0 hPa 5.4 m/s 1.6° 1025.1 hPa 3.8 m/s 33.3 mm
05:00 4.7° 1019.9 hPa 6.9 m/s 33.5 mm 5.0° 1019.6 hPa 7.0 m/s 1.7° 1022.9 hPa 5.0 m/s 33.5 mm
08:00 5.1° 1017.6 hPa 8.5 m/s 33.6 mm 5.4° 1017.3 hPa 8.7 m/s 2.1° 1021.4 hPa 5.8 m/s 33.6 mm
11:00 6.3° 1016.3 hPa 9.0 m/s 33.6 mm 6.5° 1016.0 hPa 9.3 m/s 4.0° 1020.0 hPa 5.3 m/s 33.6 mm
14:00 7.4° 1014.9 hPa 9.6 m/s 33.6 mm 7.6° 1014.6 hPa 10.0 m/s 5.2° 1018.7 hPa 5.3 m/s 33.6 mm
17:00 7.5° 1014.9 hPa 9.4 m/s 33.8 mm 7.8° 1014.7 hPa 9.8 m/s 4.7° 1018.1 hPa 4.7 m/s 33.8 mm
20:00 7.6° 1014.9 hPa 9.1 m/s 33.8 mm 7.9° 1014.7 hPa 9.6 m/s 4.8° 1017.7 hPa 3.3 m/s 33.8 mm
23:00 7.7° 1014.6 hPa 8.5 m/s 33.8 mm 8.0° 1014.2 hPa 8.9 m/s 4.1° 1018.4 hPa 3.5 m/s 33.8 mm
 06:03     21:00    Daglengte: 14:57 Woensdag 15 Apr
02:00 7.8° 1014.1 hPa 7.9 m/s 33.8 mm 8.1° 1013.7 hPa 8.2 m/s 3.9° 1018.2 hPa 4.9 m/s 33.8 mm
05:00 7.3° 1015.1 hPa 7.0 m/s 33.8 mm 7.7° 1014.9 hPa 7.2 m/s 3.0° 1017.8 hPa 4.0 m/s 33.8 mm
08:00 7.0° 1016.1 hPa 6.0 m/s 33.8 mm 7.3° 1016.0 hPa 6.3 m/s 3.5° 1017.2 hPa 3.2 m/s 33.8 mm
11:00 8.1° 1016.2 hPa 6.4 m/s 33.8 mm 8.3° 1016.1 hPa 6.8 m/s 5.6° 1017.0 hPa 2.5 m/s 33.8 mm
14:00 9.1° 1016.3 hPa 6.8 m/s 33.8 mm 9.3° 1016.3 hPa 7.2 m/s 6.9° 1016.5 hPa 1.9 m/s 33.8 mm
17:00 8.8° 1015.9 hPa 5.6 m/s 33.8 mm 8.9° 1015.9 hPa 5.8 m/s 7.3° 1016.0 hPa 2.9 m/s 33.8 mm
20:00 8.4° 1015.5 hPa 4.3 m/s 33.8 mm 8.6° 1015.5 hPa 4.5 m/s 5.7° 1015.8 hPa 2.0 m/s 33.8 mm
23:00 7.2° 1014.9 hPa 3.5 m/s 33.8 mm 7.4° 1014.9 hPa 3.8 m/s 4.4° 1015.4 hPa 0.9 m/s 33.8 mm
 06:00     21:03    Daglengte: 15:03 Donderdag 16 Apr
02:00 6.0° 1014.3 hPa 2.9 m/s 33.8 mm 6.2° 1014.3 hPa 3.0 m/s 4.1° 1013.9 hPa 1.4 m/s 33.8 mm
05:00 6.1° 1013.0 hPa 3.2 m/s 33.8 mm 6.2° 1013.1 hPa 3.4 m/s 4.0° 1011.9 hPa 1.7 m/s 33.8 mm
08:00 6.2° 1011.8 hPa 3.5 m/s 33.8 mm 6.3° 1012.0 hPa 3.7 m/s 4.6° 1009.4 hPa 1.8 m/s 33.8 mm
11:00 7.4° 1010.0 hPa 5.3 m/s 33.8 mm 7.5° 1010.2 hPa 5.7 m/s 6.6° 1007.0 hPa 1.8 m/s 33.8 mm
14:00 8.7° 1008.2 hPa 7.0 m/s 33.8 mm 8.7° 1008.5 hPa 7.6 m/s 8.1° 1004.8 hPa 0.8 m/s 33.8 mm
20:00 6.8° 1009.8 hPa 6.2 m/s 33.9 mm 6.9° 1010.5 hPa 6.2 m/s 5.9° 1002.6 hPa 6.2 m/s 33.9 mm
 05:57     21:06    Daglengte: 15:09 Vrijdag 17 Apr
02:00 5.2° 1015.8 hPa 2.4 m/s 36.7 mm 5.4° 1016.4 hPa 2.3 m/s 2.8° 1009.1 hPa 4.0 m/s 36.7 mm
08:00 5.7° 1020.0 hPa 3.0 m/s 38.8 mm 5.9° 1020.3 hPa 3.1 m/s 3.4° 1016.9 hPa 2.3 m/s 38.8 mm
14:00 8.2° 1021.5 hPa 2.9 m/s 39.0 mm 8.4° 1021.4 hPa 3.1 m/s 6.2° 1022.3 hPa 1.0 m/s 39.0 mm
20:00 7.6° 1020.4 hPa 2.2 m/s 39.0 mm 7.8° 1020.0 hPa 2.3 m/s 5.4° 1024.8 hPa 1.1 m/s 39.0 mm
 05:54     21:09    Daglengte: 15:15 Zaterdag 18 Apr
02:00 4.9° 1023.3 hPa 2.2 m/s 39.0 mm 5.0° 1023.0 hPa 2.3 m/s 3.4° 1026.7 hPa 1.6 m/s 39.0 mm
08:00 6.0° 1022.7 hPa 3.0 m/s 39.0 mm 6.1° 1022.2 hPa 3.2 m/s 4.5° 1027.7 hPa 1.3 m/s 39.0 mm
14:00 10.9° 1021.7 hPa 3.2 m/s 39.0 mm 11.2° 1021.0 hPa 3.4 m/s 8.1° 1028.9 hPa 1.5 m/s 39.0 mm
20:00 10.2° 1022.2 hPa 3.0 m/s 39.0 mm 10.5° 1021.6 hPa 3.2 m/s 6.4° 1028.7 hPa 0.3 m/s 39.0 mm
 05:50     21:12    Daglengte: 15:22 Zondag 19 Apr
02:00 5.1° 1029.1 hPa 0.6 m/s 39.0 mm 5.1° 1029.1 hPa 0.6 m/s 39.0 mm
08:00 5.9° 1015.3 hPa 3.7 m/s 0.4 mm
14:00 9.5° 1015.1 hPa 3.8 m/s 1.4 mm
20:00 8.2° 1016.1 hPa 2.9 m/s 1.3 mm
 05:47     21:15    Daglengte: 15:28 Maandag 20 Apr
02:00 5.7° 1017.0 hPa 2.1 m/s 1.2 mm
08:00 5.8° 1016.2 hPa 1.8 m/s 0.8 mm
14:00 9.7° 1014.8 hPa 2.0 m/s 1.0 mm
20:00 8.8° 1013.4 hPa 1.9 m/s 1.0 mm
 05:44     21:17    Daglengte: 15:33 Dinsdag 21 Apr
02:00 5.9° 1011.7 hPa 2.4 m/s 1.3 mm
08:00 6.0° 1009.7 hPa 2.9 m/s 1.3 mm
14:00 9.2° 1009.6 hPa 3.3 m/s 1.9 mm
20:00 8.0° 1009.8 hPa 2.5 m/s 1.6 mm
 05:41     21:20    Daglengte: 15:39 Woensdag 22 Apr
02:00 5.3° 1010.8 hPa 2.9 m/s 0.9 mm
08:00 5.5° 1011.3 hPa 2.4 m/s 1.2 mm
14:00 8.5° 1012.8 hPa 2.3 m/s 1.6 mm
20:00 6.7° 1014.0 hPa 1.9 m/s 1.7 mm
 05:37     21:23    Daglengte: 15:46 Donderdag 23 Apr
02:00 3.8° 1015.5 hPa 1.3 m/s 0.8 mm
08:00 4.4° 1015.8 hPa 1.9 m/s 0.6 mm
14:00 7.8° 1016.4 hPa 2.8 m/s 0.6 mm
20:00 6.7° 1017.3 hPa 1.5 m/s 1.1 mm
 05:34     21:26    Daglengte: 15:52 Vrijdag 24 Apr
02:00 4.3° 1018.1 hPa 1.1 m/s 0.7 mm
08:00 4.8° 1017.6 hPa 1.0 m/s 0.4 mm
FMI Hirlam - 7.5 km EWN WRFDA - 12 km DWD ICON - 7 km GFS - 25 km Basiskaart






























































Updatetijd (Europe/Amsterdam) Resolutie Lengte Stap
FMI Hirlam 07:45, 13:45, 19:45, 01:45 7.5 km 49h 1h
EWN WRFDA 09:30, 15:30, 21:30, 03:30 12 km 73h 1h
DWD ICON 11:45, 17:45, 23:45, 05:45 7 km 75h 1h
GFS 08:00, 14:00, 20:00, 02:00 25 km 237h 3h
30+ mm
25-30 mm
20-25 mm
15-20 mm
10-15 mm
6-10 mm
4-6 mm
2-4 mm
1-2 mm
0.5-1 mm
0.2-0.5 mm
0.1-0.2 mm
30+ mm
25-30 mm
20-25 mm
15-20 mm
10-15 mm
6-10 mm
4-6 mm
2-4 mm
1-2 mm
0.5-1 mm
0.2-0.5 mm
0.1-0.2 mm
Sneeuwval
Natte sneeuw
Hagel
Vorst
30+ mm
25-30 mm
20-25 mm
15-20 mm
10-15 mm
6-10 mm
4-6 mm
2-4 mm
1-2 mm
0.5-1 mm
0.2-0.5 mm
0.1-0.2 mm
Sneeuwval
Natte sneeuw
Hagel
Vorst
Onweer
50 mm
40 mm
30 mm
26 mm
22 mm
18 mm
14 mm
10 mm
9 mm
8 mm
7 mm
6 mm
5 mm
4.5 mm
4 mm
3.5 mm
3 mm
2.5 mm
2 mm
1.5 mm
1 mm
0.8 mm
0.6 mm
0.4 mm
0.2 mm
0.05 mm
35°
30°
25°
20°
15°
10°
-5°
-10°
-15°
-20°
-25°
-30°
-35°
120> km/h
105 km/h
90 km/h
75 km/h
60 km/h
50 km/h
40 km/h
30 km/h
20 km/h
10 km/h
0 km/h
2600 J/kg
2400 J/kg
2200 J/kg
2000 J/kg
1800 J/kg
1600 J/kg
1400 J/kg
1200 J/kg
1000 J/kg
800 J/kg
600 J/kg
400 J/kg
200 J/kg
70 dBZ
65 dBZ
60 dBZ
55 dBZ
50 dBZ
45 dBZ
40 dBZ
35 dBZ
30 dBZ
25 dBZ
20 dBZ
15 dBZ
10 dBZ
5 dBZ
-1 K
-2 K
-3 K
-4 K
-5 K
-6 K
-7 K
-8 K
-9 K
950 m²/s²
900 m²/s²
850 m²/s²
800 m²/s²
750 m²/s²
700 m²/s²
650 m²/s²
600 m²/s²
550 m²/s²
500 m²/s²
450 m²/s²
400 m²/s²
350 m²/s²
300 m²/s²
250 m²/s²
200 m²/s²
150 m²/s²
100 m²/s²
46 m/s
44 m/s
42 m/s
40 m/s
38 m/s
36 m/s
34 m/s
32 m/s
30 m/s
28 m/s
26 m/s
24 m/s
22 m/s
20 m/s
16 m/s
12 m/s
8 m/s
4 m/s
30 m/s
28 m/s
26 m/s
24 m/s
22 m/s
20 m/s
18 m/s
16 m/s
14 m/s
12 m/s
10 m/s
8 m/s
6 m/s
4 m/s
2 m/s
3.0
2.8
2.6
2.4
2.2
2.0
1.8
1.6
1.4
1.2
1.0
0.8
0.6
0.4
0.2
15
14
13
12
11
10
9
8
7
6
5
4
3
2
1
90%
80%
70%
60%
50%
40%
30%
20%
10%
42
40
38
36
34
32
30
28
26
24
22
20
18
16
14
12
90+ cm
80-90 cm
70-80 cm
60-70 cm
50-60 cm
40-50 cm
30-40 cm
20-30 cm
10-20 cm
1-10 cm
Sneeuwval
Natte sneeuw
Regen
>120 mm
115 mm
110 mm
105 mm
100 mm
95 mm
90 mm
85 mm
80 mm
75 mm
70 mm
65 mm
60 mm
55 mm
50 mm
45 mm
45 mm
40 mm
35 mm
30 mm
25 mm
20 mm
15 mm
10 mm
5 mm
0.1 mm
960 hPa
880 hPa
800 hPa
720 hPa
640 hPa
560 hPa
584 gpdm
568 gpdm
552 gpdm
536 gpdm
520 gpdm
504 gpdm
488 gpdm
Extreem zwaar Noodweer Kans op onweer
15% 15% 5% 50% 15%

Dag




Kaart






35°
30°
25°
20°